TimeEDT,TemperatureF,Dew PointF,Humidity,Sea Level PressureIn,VisibilityMPH,Wind Direction,Wind SpeedMPH,Gust SpeedMPH,PrecipitationIn,Events,Conditions,WindDirDegrees,DateUTC
12:53 AM,66.9,62.1,84,30.15,10.0,Calm,Calm,-,N/A,,Mostly Cloudy,0,2013-07-31 04:53:00
1:53 AM,66.9,63.0,87,30.14,10.0,Calm,Calm,-,N/A,,Mostly Cloudy,0,2013-07-31 05:53:00
2:53 AM,66.0,63.0,90,30.14,9.0,Calm,Calm,-,0.00,Rain,Light Rain,0,2013-07-31 06:53:00
3:53 AM,66.0,64.0,93,30.13,6.0,Calm,Calm,-,0.02,Rain,Light Rain,0,2013-07-31 07:53:00
4:53 AM,66.0,64.0,93,30.11,5.0,East,3.5,-,0.03,Rain,Light Rain,100,2013-07-31 08:53:00
5:53 AM,64.9,63.0,93,30.12,9.0,Calm,Calm,-,0.00,Rain,Light Rain,0,2013-07-31 09:53:00
6:53 AM,64.9,63.0,93,30.11,5.0,Variable,3.5,-,0.01,Rain,Light Rain,0,2013-07-31 10:53:00
7:53 AM,66.0,61.0,84,30.12,3.0,Calm,Calm,-,0.01,Rain,Light Rain,0,2013-07-31 11:53:00
8:53 AM,64.9,62.1,90,30.13,3.0,Calm,Calm,-,0.02,Rain,Light Rain,0,2013-07-31 12:53:00
9:53 AM,64.9,63.0,93,30.13,3.0,Calm,Calm,-,0.02,Rain,Light Rain,0,2013-07-31 13:53:00
10:44 AM,64.9,63.0,93,30.18,1.5,East,4.6,-,0.01,Rain,Light Rain,90,2013-07-31 14:44:00
10:53 AM,64.9,63.0,93,30.12,2.0,East,4.6,-,0.02,Rain,Heavy Rain,100,2013-07-31 14:53:00
11:07 AM,64.9,64.0,97,30.18,1.5,East,3.5,-,0.04,Rain,Light Rain,100,2013-07-31 15:07:00
11:15 AM,66.0,64.0,93,30.17,3.0,ESE,4.6,-,0.04,Rain,Light Rain,110,2013-07-31 15:15:00
11:53 AM,66.9,64.0,90,30.11,7.0,Variable,3.5,-,0.04,,Overcast,0,2013-07-31 15:53:00
12:53 PM,69.1,64.9,87,30.09,10.0,Calm,Calm,-,0.00,Rain,Light Rain,0,2013-07-31 16:53:00
1:53 PM,69.1,66.0,90,30.06,10.0,East,3.5,-,0.00,,Overcast,90,2013-07-31 17:53:00
2:53 PM,70.0,66.0,87,30.05,5.0,Calm,Calm,-,0.02,Rain,Light Rain,0,2013-07-31 18:53:00
3:03 PM,70.0,66.0,87,30.10,4.0,North,3.5,-,0.00,Rain,Light Rain,360,2013-07-31 19:03:00
3:53 PM,70.0,66.0,87,30.02,7.0,Calm,Calm,-,0.01,Rain,Light Rain,0,2013-07-31 19:53:00
4:23 PM,69.1,66.0,90,30.07,7.0,North,3.5,-,0.01,Rain,Light Rain,10,2013-07-31 20:23:00
4:35 PM,70.0,66.0,87,30.07,7.0,Variable,4.6,-,0.01,Rain,Light Rain,0,2013-07-31 20:35:00
4:53 PM,70.0,66.0,87,29.99,10.0,NE,4.6,-,0.01,,Overcast,50,2013-07-31 20:53:00
5:53 PM,71.1,66.0,84,29.99,10.0,NNE,3.5,-,N/A,,Overcast,20,2013-07-31 21:53:00
6:29 PM,71.1,66.0,84,30.03,10.0,Calm,Calm,-,N/A,,Overcast,0,2013-07-31 22:29:00
6:53 PM,71.1,66.0,84,29.96,10.0,Calm,Calm,-,N/A,,Overcast,0,2013-07-31 22:53:00
7:51 PM,71.6,66.2,83,30.03,10.0,Calm,Calm,-,N/A,,Overcast,0,2013-07-31 23:51:00
7:53 PM,70.0,66.9,90,29.97,10.0,Calm,Calm,-,N/A,,Overcast,0,2013-07-31 23:53:00
8:38 PM,70.0,66.9,90,30.04,9.0,Calm,Calm,-,0.02,Rain,Light Rain,0,2013-08-01 00:38:00
8:53 PM,70.0,66.9,90,29.98,3.0,Calm,Calm,-,0.02,,Overcast,0,2013-08-01 00:53:00
9:00 PM,70.0,66.9,90,30.04,2.5,Calm,Calm,-,0.01,Rain,Light Rain,0,2013-08-01 01:00:00
9:45 PM,69.1,66.9,93,30.05,4.0,Calm,Calm,-,0.02,,Overcast,0,2013-08-01 01:45:00
9:53 PM,69.1,66.9,93,29.99,6.0,Calm,Calm,-,0.02,,Light Drizzle,0,2013-08-01 01:53:00
10:27 PM,69.1,66.9,93,30.05,7.0,Calm,Calm,-,0.01,,Overcast,0,2013-08-01 02:27:00
10:53 PM,69.1,66.9,93,29.99,5.0,Calm,Calm,-,0.01,Rain,Light Rain,0,2013-08-01 02:53:00
11:24 PM,69.1,66.9,93,30.04,6.0,Calm,Calm,-,0.00,,Overcast,0,2013-08-01 03:24:00
11:37 PM,69.1,66.9,93,30.03,5.0,Calm,Calm,-,0.00,,Overcast,0,2013-08-01 03:37:00
11:53 PM,69.1,66.9,93,29.96,6.0,Calm,Calm,-,0.00,,Overcast,0,2013-08-01 03:53:00